Location: Mount Cross
(36.6390°N, 79.4878°W)
Time: 02:37:33
(UTC+00:00)

SR - Pass Details

Date: 01 April 2023
Orbit: 580 x 867 km, 66.7° (Epoch: 08 June)

Event Time Altitude Azimuth Distance (km) Brightness Sun altitude
Rises 05:27:42 0° 205° (SSW) 3,038 - -48.9°
Reaches altitude 10° 05:30:05 10° 205° (SSW) 2,081 - -48.9°
Maximum altitude 05:34:46 88° 123° (ESE) 635 - -48.8°
Drops below altitude 10° 05:39:09 10° 28° (NNE) 1,953 - -48.7°
Sets 05:41:21 0° 28° (NNE) 2,836 - -48.7°
